Weather History for Bar Harbor, ME

Change the Weather History Date:

Tuesday, March 26, 2013

  Actual Average Record
Temperature  
Mean Temperature 37 °F -  
Max Temperature 46 °F 43 °F 56 °F (1976)
Min Temperature 28 °F 29 °F 7 °F (1960)
Degree Days  
Heating Degree Days 28    
Moisture  
Dew Point 26 °F    
Average Humidity 65    
Maximum Humidity 86    
Minimum Humidity 37    
Precipitation  
Precipitation 0.04 in - - ()
Sea Level Pressure  
Sea Level Pressure 29.57 in    
Wind  
Wind Speed 11 mph (NNW)    
Max Wind Speed 18 mph    
Max Gust Speed 26 mph    
Visibility 10 miles    
Events      
Averages and records for this station are not official NWS values.
T = Trace of Precipitation, MM = Missing Value Source: NWS Daily Summary

Daily Weather History Graph

Daily Weather History Graph

Search for Another Location

Airport:

Trip Planner

Search our weather history database for the weather conditions in past years. The results will help you decide how hot, cold, wet, or windy it might be!

Date:

Astronomy

Mar. 26, 2013 Rise Set
Actual Time 6:25 AM EDT 6:53 PM EDT
Civil Twilight 5:56 AM EDT 7:22 PM EDT
Nautical Twilight 5:21 AM EDT 7:57 PM EDT
Astronomical Twilight 4:46 AM EDT 8:33 PM EDT
Moon 6:27 PM EDT (3/26) 5:40 AM EDT (3/26)
Length of Visible Light 13h 26m
Length of Day
12h 28m
Waxing Gibbous, 99% of the Moon is Illuminated
Mar 26
Waxing Gibbous
Mar 27
Full
Apr 3
Last Quarter
Apr 10
New
Apr 18
First Quarter

Hourly Weather History & Observations

Time (EDT) Temp. Windchill Dew Point Humidity Pressure Visibility Wind Dir Wind Speed Gust Speed Precip Events Conditions
12:15 AM 35.6 °F 28.0 °F 24.8 °F 65% 29.58 in 10.0 mi NNE 10.4 mph - N/A   Overcast
12:35 AM 35.6 °F 27.5 °F 24.8 °F 65% 29.57 in 10.0 mi NNE 11.5 mph 19.6 mph N/A   Overcast
12:55 AM 35.6 °F 27.1 °F 24.8 °F 65% 29.57 in 10.0 mi NNE 12.7 mph 19.6 mph N/A   Overcast
1:15 AM 33.8 °F 24.8 °F 24.8 °F 70% 29.56 in 10.0 mi North 12.7 mph - N/A   Mostly Cloudy
1:35 AM 33.8 °F 24.8 °F 24.8 °F 70% 29.56 in 10.0 mi NNE 12.7 mph - N/A   Partly Cloudy
1:55 AM 33.8 °F 23.2 °F 24.8 °F 70% 29.55 in 10.0 mi NNE 17.3 mph - N/A   Clear
2:15 AM 32.0 °F 24.8 °F 24.8 °F 75% 29.54 in 10.0 mi North 8.1 mph - N/A   Clear
2:35 AM 32.0 °F 23.0 °F 24.8 °F 75% 29.53 in 10.0 mi North 11.5 mph - N/A   Clear
2:55 AM 30.2 °F 21.3 °F 24.8 °F 80% 29.53 in 10.0 mi North 10.4 mph 16.1 mph N/A   Clear
3:15 AM 30.2 °F 20.8 °F 24.8 °F 80% 29.52 in 10.0 mi North 11.5 mph 17.3 mph N/A   Clear
3:35 AM 30.2 °F 21.3 °F 24.8 °F 80% 29.52 in 10.0 mi North 10.4 mph - N/A   Clear
3:55 AM 30.2 °F 20.2 °F 24.8 °F 80% 29.52 in 10.0 mi North 12.7 mph 23.0 mph N/A   Clear
4:15 AM 30.2 °F 23.4 °F 24.8 °F 80% 29.51 in 10.0 mi North 6.9 mph - N/A   Partly Cloudy
4:35 AM 30.2 °F 22.6 °F 24.8 °F 80% 29.51 in 10.0 mi North 8.1 mph - N/A   Partly Cloudy
4:55 AM 30.2 °F 21.3 °F 24.8 °F 80% 29.51 in 10.0 mi North 10.4 mph - N/A   Clear
5:15 AM 30.2 °F 21.3 °F 24.8 °F 80% 29.51 in 10.0 mi North 10.4 mph - N/A   Clear
5:35 AM 30.2 °F 23.4 °F 24.8 °F 80% 29.52 in 10.0 mi North 6.9 mph - N/A   Clear
5:55 AM 28.4 °F 20.4 °F 24.8 °F 86% 29.52 in 10.0 mi North 8.1 mph - N/A   Clear
6:15 AM 28.4 °F 21.2 °F 24.8 °F 86% 29.53 in 10.0 mi North 6.9 mph - N/A   Clear
6:35 AM 28.4 °F 19.7 °F 24.8 °F 86% 29.53 in 10.0 mi North 9.2 mph - N/A   Clear
6:55 AM 30.2 °F 21.9 °F 24.8 °F 80% 29.54 in 10.0 mi North 9.2 mph - N/A   Clear
7:15 AM 30.2 °F 21.9 °F 24.8 °F 80% 29.55 in 10.0 mi North 9.2 mph - N/A   Clear
7:35 AM 30.2 °F 21.3 °F 24.8 °F 80% 29.55 in 10.0 mi North 10.4 mph - N/A   Clear
7:55 AM 32.0 °F 24.2 °F 24.8 °F 75% 29.55 in 10.0 mi North 9.2 mph 16.1 mph N/A   Clear
8:15 AM 33.8 °F 24.3 °F 24.8 °F 70% 29.55 in 10.0 mi North 13.8 mph 21.9 mph N/A   Clear
8:35 AM 33.8 °F 25.8 °F 24.8 °F 70% 29.55 in 10.0 mi North 10.4 mph 23.0 mph N/A   Clear
8:55 AM 35.6 °F 28.0 °F 24.8 °F 65% 29.55 in 10.0 mi North 10.4 mph 20.7 mph N/A   Clear
9:15 AM 35.6 °F 27.1 °F 26.6 °F 70% 29.55 in 10.0 mi North 12.7 mph 20.7 mph N/A   Partly Cloudy
9:35 AM 37.4 °F 27.5 °F 26.6 °F 65% 29.56 in 10.0 mi North 18.4 mph 25.3 mph N/A   Mostly Cloudy
9:55 AM 37.4 °F 28.5 °F 26.6 °F 65% 29.56 in 10.0 mi North 15.0 mph 21.9 mph N/A   Mostly Cloudy
10:15 AM 37.4 °F 28.2 °F 26.6 °F 65% 29.56 in 10.0 mi North 16.1 mph 23.0 mph N/A   Mostly Cloudy
10:35 AM 39.2 °F 31.6 °F 26.6 °F 61% 29.56 in 10.0 mi North 12.7 mph 21.9 mph N/A   Scattered Clouds
10:55 AM 39.2 °F 30.5 °F 26.6 °F 61% 29.56 in 10.0 mi North 16.1 mph 23.0 mph N/A   Scattered Clouds
11:15 AM 41.0 °F 33.5 °F 24.8 °F 53% 29.56 in 10.0 mi North 13.8 mph 26.5 mph N/A   Mostly Cloudy
11:35 AM 42.8 °F 35.8 °F 24.8 °F 49% 29.55 in 10.0 mi NNE 13.8 mph 23.0 mph N/A   Scattered Clouds
11:55 AM 42.8 °F 35.8 °F 24.8 °F 49% 29.55 in 10.0 mi North 13.8 mph - 0.04 in   Scattered Clouds
12:15 PM 42.8 °F 35.4 °F 24.8 °F 49% 29.55 in 10.0 mi North 15.0 mph 23.0 mph N/A   Mostly Cloudy
12:35 PM 42.8 °F 35.8 °F 24.8 °F 49% 29.55 in 10.0 mi North 13.8 mph 19.6 mph N/A   Mostly Cloudy
12:55 PM 44.6 °F 38.4 °F 23.0 °F 43% 29.55 in 10.0 mi North 12.7 mph 20.7 mph N/A   Mostly Cloudy
1:15 PM 44.6 °F 37.4 °F 24.8 °F 46% 29.55 in 10.0 mi North 16.1 mph 20.7 mph N/A   Scattered Clouds
1:35 PM 46.4 °F 41.9 °F 23.0 °F 40% 29.55 in 10.0 mi North 9.2 mph 16.1 mph N/A   Scattered Clouds
1:55 PM 46.4 °F 41.9 °F 21.2 °F 37% 29.55 in 10.0 mi North 9.2 mph - N/A   Mostly Cloudy
2:15 PM 46.4 °F 41.5 °F 23.0 °F 40% 29.55 in 10.0 mi NNW 10.4 mph 20.7 mph N/A   Mostly Cloudy
2:35 PM 46.4 °F 40.4 °F 23.0 °F 40% 29.55 in 10.0 mi NW 13.8 mph 23.0 mph N/A   Mostly Cloudy
2:55 PM 46.4 °F 40.4 °F 24.8 °F 43% 29.55 in 10.0 mi NW 13.8 mph 19.6 mph N/A   Overcast
3:15 PM 42.8 °F 36.6 °F 28.4 °F 57% 29.56 in 10.0 mi NNW 11.5 mph 19.6 mph N/A   Overcast
3:35 PM 46.4 °F 41.1 °F 26.6 °F 46% 29.56 in 10.0 mi NNW 11.5 mph 17.3 mph N/A   Overcast
3:55 PM 44.6 °F 38.8 °F 26.6 °F 49% 29.56 in 10.0 mi NNW 11.5 mph 19.6 mph N/A   Overcast
4:15 PM 46.4 °F 41.9 °F 26.6 °F 46% 29.57 in 10.0 mi NNW 9.2 mph - N/A   Mostly Cloudy
4:35 PM 46.4 °F 41.1 °F 26.6 °F 46% 29.57 in 10.0 mi North 11.5 mph 17.3 mph N/A   Mostly Cloudy
4:55 PM 46.4 °F 41.9 °F 26.6 °F 46% 29.58 in 10.0 mi NNW 9.2 mph 21.9 mph N/A   Overcast
5:15 PM 44.6 °F 38.1 °F 26.6 °F 49% 29.59 in 10.0 mi NNW 13.8 mph 17.3 mph N/A   Overcast
5:35 PM 44.6 °F 40.7 °F 28.4 °F 53% 29.60 in 10.0 mi NNW 6.9 mph 16.1 mph N/A   Overcast
5:55 PM 44.6 °F 40.7 °F 26.6 °F 49% 29.60 in 10.0 mi NNW 6.9 mph 16.1 mph N/A   Overcast
6:15 PM 44.6 °F 41.4 °F 28.4 °F 53% 29.61 in 10.0 mi NNW 5.8 mph - N/A   Overcast
6:35 PM 44.6 °F 40.7 °F 28.4 °F 53% 29.62 in 10.0 mi NNW 6.9 mph - N/A   Overcast
6:55 PM 42.8 °F 36.6 °F 30.2 °F 61% 29.63 in 10.0 mi NNW 11.5 mph 17.3 mph N/A   Overcast
7:15 PM 42.8 °F 38.6 °F 30.2 °F 61% 29.63 in 10.0 mi NNW 6.9 mph - N/A   Overcast
7:35 PM 41.0 °F 35.8 °F 30.2 °F 65% 29.64 in 10.0 mi NNW 8.1 mph - N/A   Scattered Clouds
7:55 PM 39.2 °F 35.9 °F 30.2 °F 70% 29.64 in 10.0 mi NW 4.6 mph - N/A   Clear
8:15 PM 39.2 °F 35.9 °F 30.2 °F 70% 29.65 in 10.0 mi West 4.6 mph - N/A   Clear
8:35 PM 37.4 °F 33.8 °F 30.2 °F 75% 29.65 in 10.0 mi West 4.6 mph - N/A   Clear
8:55 PM 37.4 °F 33.8 °F 30.2 °F 75% 29.66 in 10.0 mi WNW 4.6 mph - N/A   Clear
9:15 PM 37.4 °F 32.8 °F 30.2 °F 75% 29.66 in 10.0 mi WNW 5.8 mph - N/A   Clear
9:35 PM 37.4 °F 34.9 °F 30.2 °F 75% 29.66 in 10.0 mi WNW 3.5 mph - N/A   Clear
9:55 PM 35.6 °F 31.7 °F 30.2 °F 81% 29.66 in 10.0 mi West 4.6 mph - N/A   Clear
10:15 PM 35.6 °F 30.7 °F 30.2 °F 81% 29.66 in 10.0 mi West 5.8 mph - N/A   Clear
10:35 PM 35.6 °F 31.7 °F 30.2 °F 81% 29.66 in 10.0 mi WNW 4.6 mph - N/A   Clear
10:55 PM 35.6 °F 31.7 °F 30.2 °F 81% 29.66 in 10.0 mi West 4.6 mph - N/A   Clear
11:15 PM 35.6 °F 32.8 °F 28.4 °F 75% 29.67 in 10.0 mi WNW 3.5 mph - N/A   Clear
11:35 PM 35.6 °F 30.7 °F 28.4 °F 75% 29.66 in 10.0 mi NW 5.8 mph - N/A   Clear
11:55 PM 35.6 °F 32.8 °F 28.4 °F 75% 29.66 in 10.0 mi West 3.5 mph - N/A   Clear